Theta_e
341 345 351 356 355 353 352 352 351 351 351 351 352 353 353 353 353 354 354 354 354 354 354 354 354 353 354 354 354 354 353 352 352 351 351 351 351 350 350 349 348 349 346 344 344 344 344 344 343 344 343 343 344 344 343 346 346 346 347 347 347 346 345 346 345 347 347 347 346 345 343 343 342 342 342 341 341 341 340 340 341 343 340 341 340
342 346 352 355 355 354 352 352 352 351 350 351 352 352 353 353 353 353 354 354 354 354 354 354 354 354 354 353 353 354 353 352 352 351 351 351 351 350 350 349 348 347 347 347 344 343 344 343 343 343 343 344 343 343 344 345 346 346 346 347 347 347 347 346 346 345 344 344 344 344 344 343 343 342 342 341 340 339 339 339 342 345 339 340 340
344 349 351 356 355 353 352 351 351 351 350 350 351 352 353 353 353 354 354 355 354 354 354 354 354 353 354 353 353 354 353 352 352 352 351 351 351 349 347 346 346 346 346 346 346 343 342 343 342 342 344 344 343 344 343 345 345 345 344 344 344 344 345 345 345 344 345 346 343 343 345 345 343 341 341 342 341 339 338 340 340 342 339 338 340
346 349 349 357 354 354 353 351 351 351 350 350 351 352 353 354 354 354 354 355 354 353 354 354 354 353 353 354 353 353 353 353 352 351 351 351 350 348 347 346 345 345 346 345 342 341 342 342 342 342 345 344 343 344 344 345 345 345 345 345 345 344 343 342 343 344 343 343 342 345 347 348 343 341 342 340 339 339 339 339 339 339 339 339 338
347 347 349 354 355 354 353 351 350 350 349 350 351 352 353 354 354 354 354 354 354 354 354 353 353 353 354 353 353 353 353 352 352 352 351 351 351 350 347 346 346 347 346 347 342 341 342 342 342 342 343 343 344 344 344 344 345 345 344 344 343 343 344 343 342 341 342 341 341 343 342 343 344 341 342 341 340 339 339 338 339 339 339 339 338
346 348 348 350 353 355 352 350 350 350 350 350 351 352 353 354 354 354 354 354 354 354 354 353 353 353 353 353 353 353 353 353 352 352 351 350 350 347 346 346 347 347 346 344 342 342 342 343 342 342 344 344 343 344 344 344 344 344 344 343 343 343 344 344 344 342 339 340 340 344 342 342 342 343 342 341 340 339 340 339 338 338 339 337 337
348 348 349 350 351 353 351 350 349 349 350 350 351 352 353 354 354 353 353 353 354 354 353 353 353 353 353 353 353 353 353 352 352 352 351 351 350 349 349 348 347 347 348 347 344 343 344 344 343 343 344 343 343 344 343 343 343 343 343 344 343 343 343 344 343 344 343 343 344 343 341 341 342 339 342 342 340 338 338 339 338 338 339 337 339
348 348 349 348 351 352 351 349 349 349 350 351 352 353 354 354 354 353 353 354 354 354 354 353 353 353 353 353 353 352 352 352 351 351 351 349 348 347 346 345 344 345 345 342 341 341 343 345 344 344 344 345 344 344 344 344 344 344 343 343 342 342 344 343 344 344 346 346 344 343 342 341 341 338 339 342 342 340 340 338 338 338 337 337 339
346 348 350 348 352 350 350 350 350 349 349 351 353 353 353 353 353 353 353 353 353 354 353 353 353 353 353 353 352 352 352 351 351 351 349 347 347 346 345 345 345 344 344 345 345 344 344 345 346 345 345 346 345 345 344 344 344 344 343 344 344 344 345 345 344 345 345 344 344 342 344 342 341 343 339 342 341 340 339 340 341 337 335 336 338
346 349 350 349 353 351 350 350 350 349 350 353 353 353 353 353 353 353 353 353 353 353 353 353 353 353 353 352 352 352 352 351 351 350 349 349 349 349 347 346 346 346 344 345 345 345 346 346 346 346 347 346 345 345 345 345 345 345 344 345 345 346 346 346 346 347 348 344 341 342 340 343 341 341 340 340 341 340 340 339 339 339 339 338 338
348 349 349 349 352 350 350 351 350 350 352 353 353 353 353 353 353 353 353 353 353 353 353 352 353 353 352 352 352 351 351 351 351 350 349 348 347 346 345 345 344 345 344 344 345 346 346 346 346 346 346 346 346 345 345 346 345 344 345 346 346 346 347 346 347 347 343 341 341 343 341 340 346 345 344 341 339 339 339 338 338 339 340 339 338
347 350 350 350 353 350 350 351 350 351 353 353 353 353 353 353 353 353 353 353 352 353 352 352 352 352 351 351 351 351 351 350 349 348 349 348 346 345 344 344 344 345 344 344 345 345 346 345 345 345 345 345 346 346 345 346 345 345 345 345 347 347 347 347 346 340 342 340 340 344 341 343 342 343 342 342 341 339 339 339 340 340 339 339 339
346 347 349 353 352 351 351 350 350 352 354 353 353 353 353 353 353 353 353 353 352 352 352 352 352 352 351 351 350 350 349 348 348 347 346 346 346 345 344 343 343 344 345 344 345 345 345 345 345 346 346 346 346 346 345 346 346 345 345 345 347 348 348 346 345 340 340 341 342 343 341 345 346 343 341 343 342 341 341 341 342 341 340 340 339
344 346 348 351 350 352 351 351 351 353 353 353 353 353 353 353 353 353 353 353 352 352 352 351 351 351 350 350 349 348 347 346 345 345 345 344 344 343 343 344 344 344 344 344 344 344 345 346 346 347 347 347 346 346 346 345 346 345 345 345 347 347 348 351 347 341 342 342 343 341 342 345 347 342 339 343 343 343 343 342 342 341 340 340 339
345 347 347 348 350 351 351 351 351 353 354 353 353 353 354 353 353 353 352 352 351 352 351 351 350 350 350 349 347 346 345 344 343 342 341 342 342 343 343 344 344 344 343 344 344 344 344 345 346 346 345 346 347 347 346 346 347 346 346 346 347 347 349 345 339 341 340 339 341 341 340 343 346 344 340 342 345 345 344 343 342 341 340 340 340
347 346 345 348 347 349 351 352 351 353 353 353 353 353 353 353 353 352 351 351 351 351 350 350 349 349 348 347 346 345 343 343 343 342 342 341 342 342 343 343 344 344 343 343 343 344 344 345 346 346 347 346 347 347 348 346 346 347 346 347 347 347 350 348 342 340 341 341 342 342 342 344 344 342 341 342 345 346 345 344 343 342 342 341 340
348 347 345 345 346 347 347 350 350 353 353 353 353 353 353 352 352 351 351 351 351 350 350 349 349 348 347 346 345 344 343 342 342 341 342 341 341 342 342 343 343 342 343 342 343 343 344 345 345 346 346 346 346 346 346 346 346 345 345 345 347 348 348 347 341 342 340 339 338 340 343 342 343 344 341 342 344 347 346 345 345 344 343 342 341
346 345 344 344 346 345 347 347 350 355 354 354 353 353 352 352 351 351 351 350 350 349 349 348 348 347 347 346 345 345 343 343 343 342 341 342 342 343 343 343 343 344 343 341 342 343 343 344 344 345 346 346 345 346 344 344 345 345 344 346 347 348 346 346 343 342 342 342 339 342 343 349 343 344 342 342 344 346 347 346 345 344 344 343 342
344 343 344 344 343 345 345 347 350 348 353 354 354 355 352 352 351 351 350 350 349 349 348 347 347 346 345 345 345 345 344 344 343 343 343 342 342 342 343 343 344 345 345 345 345 344 342 341 342 343 343 344 345 342 340 340 341 343 346 347 349 348 347 348 340 339 341 344 343 343 346 340 344 342 342 342 343 345 346 347 345 344 343 343 342
343 344 344 345 343 344 346 345 348 349 351 352 354 354 353 351 351 350 350 349 349 348 347 346 347 346 346 346 346 346 345 346 344 345 343 343 343 344 343 344 344 344 344 345 345 346 346 345 344 342 343 342 342 341 340 342 340 343 345 347 348 349 348 343 339 339 341 343 343 346 344 344 343 342 343 343 343 345 346 346 345 344 341 341 339
341 341 343 343 343 344 346 345 348 348 350 352 354 353 352 351 351 350 349 349 348 347 347 347 346 347 347 345 346 345 347 346 349 345 345 345 345 344 344 344 344 345 345 346 346 345 346 346 346 347 346 346 345 342 340 339 338 342 344 344 345 346 344 341 343 343 342 344 345 343 344 343 344 344 345 346 345 345 345 346 345 343 342 341 339
339 340 342 343 343 344 346 346 347 347 350 351 351 353 354 351 352 352 351 350 347 346 350 349 347 350 344 347 347 345 345 345 346 344 347 349 347 344 345 345 346 345 345 345 345 345 345 346 346 346 347 345 345 343 342 341 341 341 342 344 346 342 343 343 343 342 342 345 346 346 344 344 345 346 346 347 347 346 345 345 344 342 342 342 341
338 339 340 343 343 344 345 346 346 347 350 350 351 352 352 353 351 351 349 347 349 349 348 348 349 347 347 345 347 348 347 348 351 348 350 345 348 346 345 345 344 344 344 346 346 345 344 345 346 346 346 346 343 338 339 341 345 345 346 351 341 341 343 344 345 345 344 345 346 346 346 345 346 347 347 347 347 347 345 343 343 344 343 342 341
339 339 339 343 343 342 345 345 346 348 349 348 350 351 351 351 350 350 349 349 348 347 348 348 347 348 348 349 348 349 350 351 351 350 350 350 348 346 345 343 344 344 343 348 345 346 345 345 345 346 345 343 341 338 337 339 341 343 343 341 341 343 345 346 343 345 346 344 345 346 347 347 347 348 348 347 346 345 344 343 343 343 342 341 341
341 341 340 342 343 342 344 344 346 348 348 348 349 348 351 348 349 348 348 347 345 346 347 348 348 349 349 349 348 349 349 349 350 350 349 349 349 348 351 350 351 349 346 346 345 345 349 342 343 346 342 339 339 340 339 339 341 341 341 342 345 346 345 347 347 347 345 348 346 345 345 345 345 346 346 346 345 345 344 343 343 342 341 341 341
341 339 338 341 342 342 345 343 346 348 349 348 348 348 349 348 348 346 346 346 346 345 347 347 347 349 348 348 349 350 349 349 349 349 348 349 348 348 348 350 349 350 349 349 344 344 341 339 339 339 339 343 340 342 343 341 340 342 343 347 346 347 346 345 345 347 346 348 342 342 343 344 344 345 346 346 345 345 344 343 342 342 342 342 341
338 339 340 340 343 344 346 344 345 347 348 348 348 348 348 347 348 346 345 344 345 346 345 346 347 348 349 350 349 347 347 347 347 348 347 349 349 348 347 349 350 350 351 349 348 348 346 343 342 342 342 342 342 343 344 345 347 344 346 344 346 347 347 346 346 346 348 344 341 340 340 340 342 343 344 344 345 344 344 343 343 342 341 341 341
339 341 339 340 343 344 346 346 344 346 348 348 349 347 348 348 347 346 345 344 345 345 344 345 349 348 349 350 350 348 348 348 347 346 346 349 347 347 349 347 350 349 351 351 350 347 347 347 349 347 346 346 344 346 345 345 346 348 345 345 345 348 347 345 347 347 347 344 341 338 336 336 335 338 340 342 344 344 343 343 343 343 341 340 340
338 341 340 340 342 345 347 347 346 346 347 348 347 346 348 347 347 345 344 344 345 345 345 347 347 348 350 351 350 351 349 348 349 347 348 347 347 348 347 348 349 349 350 349 350 350 348 348 348 346 346 346 345 346 344 344 346 347 344 343 344 345 346 345 345 342 343 340 339 335 333 332 331 332 334 337 340 341 341 342 342 342 341 340 338
340 342 339 340 341 346 346 346 346 347 347 347 347 346 346 346 345 345 344 346 345 347 348 346 346 348 349 352 351 350 350 350 350 348 347 346 348 348 347 347 347 349 348 349 350 349 347 346 346 345 343 344 344 344 344 343 342 343 342 343 343 342 341 340 339 340 340 340 337 333 331 329 328 328 328 331 334 336 337 338 339 339 340 340 340
342 341 340 339 341 345 344 346 346 347 346 344 345 347 347 345 345 345 345 345 346 347 348 348 347 348 348 352 351 351 351 352 351 349 348 348 348 347 346 347 346 345 348 349 350 349 348 346 346 344 344 343 342 342 341 342 341 340 341 339 339 339 338 338 336 337 336 336 337 335 328 327 325 325 325 325 327 330 332 333 335 335 336 337 338
340 340 340 340 341 342 343 345 346 347 347 345 346 345 346 345 345 346 344 346 348 347 347 348 347 349 351 353 354 354 353 353 352 349 349 347 348 345 346 348 345 346 347 349 348 348 347 344 344 344 344 343 341 341 341 340 340 338 337 336 335 335 333 333 333 334 333 335 335 336 335 329 325 323 322 322 322 324 326 328 330 331 332 333 334
341 342 340 341 341 343 343 344 347 348 346 346 345 346 346 346 346 345 346 347 348 348 348 348 348 349 353 354 353 352 353 352 348 347 346 347 346 347 344 346 347 348 348 347 346 346 346 343 343 342 341 341 341 341 338 340 338 336 335 332 332 330 330 331 331 331 330 330 331 331 332 333 331 323 320 320 320 321 321 323 325 326 328 330 331
339 341 341 340 341 342 343 344 346 345 346 346 347 345 346 345 345 346 347 348 348 350 348 348 348 349 353 353 352 352 351 350 347 347 346 346 346 345 345 345 346 347 347 346 344 343 341 341 339 339 338 338 338 339 337 336 334 333 331 330 330 330 328 327 327 327 328 328 328 329 329 329 329 331 326 319 317 318 318 319 321 322 324 325 327
340 341 340 340 342 341 342 343 345 345 347 347 346 345 346 345 344 345 346 347 347 348 347 348 348 349 351 352 353 352 350 347 347 347 345 345 344 344 342 344 347 347 344 344 341 340 340 339 338 337 338 337 336 338 337 336 332 329 329 328 327 327 326 326 326 325 323 325 325 325 325 323 323 325 324 322 317 315 316 316 317 318 319 321 323
341 341 341 341 340 341 343 343 345 345 346 346 346 347 346 346 345 344 347 347 346 346 346 347 347 349 351 351 352 349 348 347 347 347 345 345 343 342 341 344 345 344 342 342 342 339 340 339 337 337 336 334 335 336 336 332 329 326 326 325 324 324 323 323 323 322 322 323 322 323 322 321 320 319 319 317 316 315 314 314 314 315 316 317 319
342 343 342 340 339 341 342 343 343 345 346 346 345 346 346 345 346 346 346 346 345 345 345 347 347 349 351 349 348 347 347 346 346 346 345 344 343 341 341 343 344 341 341 340 339 339 340 337 336 334 335 332 331 333 333 329 326 324 323 322 322 322 321 322 321 321 321 320 320 319 319 319 318 316 317 316 314 314 313 313 313 313 313 314 316
343 343 342 340 339 340 342 343 344 345 345 344 345 345 345 345 345 344 345 344 345 346 346 346 347 349 348 346 345 346 346 345 345 345 344 343 343 342 342 343 342 342 340 339 338 339 338 338 333 331 330 332 331 333 330 326 323 322 320 320 319 318 317 318 319 319 318 318 318 318 317 316 315 316 315 315 314 313 313 313 312 311 313 312 313
343 343 342 341 340 340 341 342 344 344 344 344 345 345 345 344 344 343 343 343 345 346 345 344 347 349 347 345 345 345 345 344 344 344 344 341 341 342 342 341 341 339 339 338 337 337 335 334 331 328 328 329 332 334 330 324 321 318 316 317 317 317 316 316 317 317 316 318 316 316 316 315 314 314 315 314 313 313 314 314 312 313 313 312 312
343 342 342 341 340 340 342 343 343 343 343 344 343 341 340 339 339 340 340 341 342 341 343 344 347 347 345 345 344 344 344 344 344 345 344 342 341 340 341 341 340 339 338 337 336 334 333 330 329 328 327 328 332 331 328 323 320 318 315 315 315 314 315 314 316 315 316 316 315 315 314 314 314 314 313 314 313 314 313 313 313 311 313 312 311
341 342 341 341 340 339 341 341 341 342 341 340 340 339 337 337 338 338 338 339 339 340 341 343 345 343 342 342 343 343 343 344 343 344 343 340 340 340 340 339 338 337 336 335 334 331 330 328 325 327 326 326 328 331 328 326 322 319 319 317 314 313 314 314 314 314 314 314 313 312 312 314 313 313 314 314 312 312 313 312 312 312 312 311 312
340 340 340 340 341 340 340 339 339 339 340 339 339 339 339 338 337 336 337 337 338 337 337 339 341 341 342 342 343 343 343 343 342 342 342 339 339 338 338 336 334 333 332 331 330 328 328 326 324 321 323 324 326 329 330 328 321 320 318 318 318 316 313 312 311 312 313 313 314 313 313 313 312 313 313 312 313 312 312 312 312 312 313 312 312
340 339 339 341 340 337 337 337 337 337 338 339 338 338 340 341 339 338 337 337 339 339 338 338 339 339 341 341 341 341 341 340 340 339 337 336 336 336 335 332 332 330 329 328 329 329 327 325 325 321 318 320 323 327 328 330 324 325 325 321 317 313 313 312 313 311 311 313 313 313 313 313 312 312 312 312 311 311 311 311 311 312 311 311 311
339 338 337 337 335 335 338 337 337 338 339 339 339 342 342 342 341 340 339 338 335 336 335 335 335 337 335 335 336 336 335 335 335 335 334 335 335 333 332 330 328 328 327 325 327 326 327 325 323 322 322 317 315 317 324 326 325 326 319 320 321 319 310 311 311 310 310 310 312 311 312 312 312 311 311 309 310 311 310 310 310 310 311 311 310
336 334 335 334 333 334 336 336 336 338 338 339 341 342 339 335 335 336 335 331 332 332 331 329 330 330 331 332 331 333 332 332 332 332 332 332 332 331 329 327 326 325 325 324 324 323 323 322 323 323 322 317 312 314 316 320 321 321 319 314 308 314 309 309 307 305 309 307 307 307 310 311 310 309 307 307 308 310 311 309 310 310 310 310 310
330 331 336 334 334 335 335 336 336 337 337 339 340 338 334 331 331 328 326 326 325 325 326 326 327 327 328 331 330 330 330 329 328 329 330 329 328 327 326 324 323 323 323 323 323 323 322 320 320 321 321 320 314 311 310 314 315 316 317 315 317 315 308 310 309 302 309 309 308 307 307 308 309 307 307 306 306 307 309 308 310 309 310 309 309
332 332 335 335 336 336 335 335 336 337 338 338 338 335 334 332 332 329 326 326 327 328 330 329 329 327 329 329 328 329 328 328 327 326 326 325 324 324 324 322 322 322 323 323 323 322 321 321 321 321 320 320 316 309 309 308 311 312 312 313 314 315 316 314 306 306 304 306 306 307 307 307 308 307 306 305 306 307 308 308 308 308 309 310 309
333 335 336 334 335 336 336 336 336 336 338 337 337 337 333 332 333 332 331 330 330 328 328 327 328 327 326 326 327 327 327 326 324 323 323 323 322 322 322 322 321 321 320 320 320 319 319 320 320 320 320 321 320 316 313 310 307 308 313 311 310 311 312 312 311 309 305 305 303 306 309 310 309 308 307 306 306 308 308 308 306 306 308 308 308
332 335 336 334 334 335 336 338 337 337 337 338 336 336 334 333 333 332 331 332 330 327 327 326 325 326 324 325 326 326 326 325 324 323 323 322 322 322 321 321 320 319 318 319 319 319 318 317 316 316 316 315 316 315 313 311 312 309 310 311 311 310 309 311 311 309 306 305 301 303 305 309 310 308 308 308 308 308 308 307 307 307 308 309 308
335 337 336 335 335 336 335 336 335 337 337 337 336 335 334 335 334 332 329 327 326 326 326 324 324 325 324 325 325 325 324 324 324 323 322 321 321 321 320 321 321 319 318 317 316 315 315 315 315 315 315 314 314 313 312 311 312 313 313 313 311 310 309 308 307 308 308 307 302 300 302 303 303 306 307 307 308 308 308 308 308 306 307 308 308
335 336 336 335 336 334 334 335 336 336 337 338 338 334 335 336 334 334 329 327 326 325 324 322 321 323 323 324 325 324 324 323 323 323 322 321 321 321 320 320 320 318 316 315 313 311 312 313 314 314 313 312 312 312 312 312 312 311 310 308 307 307 305 304 306 306 306 306 305 303 303 303 302 303 304 307 308 306 305 307 306 306 307 308 307
Wind_Speed
10 13 14 17 14 15 15 15 13 13 13 12 12 11 11 12 12 13 13 12 12 12 11 11 11 11 11 12 12 12 12 12 12 12 12 12 12 13 12 12 12 11 11 11 10 10 10 9 10 11 10 11 11 11 11 12 11 11 13 13 13 12 11 12 11 11 10 11 10 10 9 9 8 8 8 9 9 8 8 8 11 6 6 8 8
13 13 14 16 13 14 15 15 14 13 13 12 12 12 11 12 12 12 12 12 12 12 12 12 11 11 11 12 12 12 12 12 13 12 12 12 12 13 12 12 11 11 11 11 11 10 10 10 10 10 10 12 11 11 11 12 12 12 12 12 12 11 11 11 12 10 9 9 9 8 9 9 8 7 7 7 8 7 7 8 10 11 8 8 8
13 13 13 16 15 16 15 15 14 13 13 12 13 12 11 12 12 12 13 13 12 12 12 12 11 11 11 11 12 12 12 12 12 13 12 12 12 12 11 11 10 10 10 11 11 10 9 10 10 10 12 12 12 12 12 13 13 13 12 12 12 11 11 11 10 8 7 6 6 8 9 9 8 7 7 7 7 6 7 8 10 13 7 8 7
14 12 13 16 16 13 13 14 14 14 13 12 13 12 11 11 12 12 12 12 12 12 12 11 10 10 11 11 11 12 11 12 12 12 12 11 10 12 10 10 10 10 10 10 10 10 10 10 10 11 12 12 13 13 13 12 12 12 12 11 11 12 11 10 8 7 6 4 2 6 4 7 8 7 6 6 5 5 5 5 6 7 5 6 5
13 13 13 15 15 13 13 14 13 14 13 13 13 13 12 12 12 12 12 11 11 12 12 11 11 11 10 10 12 12 11 10 12 12 11 11 10 11 10 10 10 9 10 11 11 10 11 11 11 12 13 13 13 13 13 12 12 11 11 10 10 10 10 9 8 6 4 2 3 10 4 5 5 7 5 5 5 4 4 5 6 7 7 5 4
12 12 13 13 13 15 13 14 14 14 14 14 14 13 12 12 13 12 12 12 12 11 11 11 11 11 11 11 11 12 12 12 12 11 10 10 10 10 11 11 10 9 10 11 11 11 11 11 11 12 13 13 14 13 12 11 10 9 8 7 6 6 6 6 6 4 1 3 9 1 3 5 5 6 5 5 4 4 5 5 6 6 5 5 4
12 11 12 12 12 14 13 13 15 15 14 14 14 13 12 13 13 12 12 12 11 11 12 11 11 11 11 11 11 12 12 12 11 11 11 11 10 11 12 12 10 11 11 11 12 11 11 11 11 12 12 13 13 12 11 10 9 8 7 5 3 3 3 4 4 5 4 9 1 3 4 4 4 6 5 4 3 3 3 4 3 4 4 5 8
10 10 11 11 11 16 14 14 15 14 14 14 13 13 13 13 13 12 12 11 11 11 12 11 11 11 11 11 11 11 11 11 11 12 13 12 12 11 11 11 11 10 9 10 11 11 12 11 12 12 12 12 12 11 10 9 7 5 4 3 2 1 3 3 3 6 7 4 3 4 3 5 5 6 7 3 2 1 2 1 1 3 2 3 5
10 11 11 11 13 18 15 13 13 15 14 14 14 14 13 13 12 12 12 12 11 11 12 12 11 11 12 11 11 11 11 11 13 13 12 12 11 11 11 10 10 9 9 9 9 10 11 11 11 12 12 12 12 10 8 7 5 4 3 3 2 2 3 4 5 8 9 0 1 4 2 4 5 5 7 2 0 1 2 6 8 6 5 1 5
10 10 10 10 13 18 15 14 13 14 14 14 14 13 13 13 12 12 11 11 11 11 11 11 11 11 11 11 11 11 11 11 11 12 12 12 12 12 11 10 10 9 9 9 9 10 10 10 11 11 11 10 9 8 7 5 5 4 3 3 3 3 4 4 7 9 3 2 5 4 7 10 4 6 8 1 1 1 2 6 8 9 8 4 5
11 10 9 10 16 15 14 13 13 13 15 15 14 14 13 13 13 12 11 11 11 11 11 11 11 11 11 11 11 11 11 11 11 12 12 12 11 11 11 10 9 9 9 10 10 10 10 10 10 10 10 9 8 7 6 5 5 4 4 3 3 3 4 7 8 5 2 4 4 4 7 3 2 6 7 1 1 1 3 4 5 5 5 5 6
11 10 9 11 17 14 14 12 13 12 14 14 14 14 13 13 13 11 11 11 11 11 10 10 10 10 11 10 11 11 11 11 10 11 11 12 11 11 10 10 10 9 8 9 9 10 10 10 9 9 8 8 7 7 6 5 4 4 3 3 3 5 4 6 9 3 2 3 7 2 4 4 5 9 4 1 2 3 4 5 6 6 5 6 6
11 11 11 14 14 14 13 12 12 12 14 14 13 13 14 13 12 12 11 8 10 10 10 10 10 10 10 10 10 11 11 10 11 10 10 10 10 10 10 10 10 10 9 8 9 9 10 10 9 9 8 7 6 6 5 4 4 3 2 3 3 5 6 7 6 1 3 3 3 2 3 3 3 9 2 2 3 4 5 7 7 6 6 6 6
11 11 11 12 12 15 13 11 10 10 13 13 13 11 12 12 12 12 10 9 10 10 9 10 10 10 10 11 11 10 10 10 10 10 9 9 9 9 9 10 10 9 9 8 8 8 9 9 9 8 7 6 5 5 4 4 3 2 3 3 4 7 7 10 5 2 2 3 1 4 3 2 6 7 2 4 5 5 7 7 7 6 6 6 6
11 11 12 12 13 13 14 10 9 10 10 10 10 10 11 11 11 11 11 11 11 10 10 11 11 11 11 10 10 9 9 9 9 9 8 8 8 8 9 9 9 9 8 8 8 8 8 8 8 8 7 6 4 3 3 3 3 2 3 2 4 7 11 5 2 4 2 2 2 3 1 2 9 4 3 5 6 7 7 8 7 6 6 6 6
11 12 12 11 13 14 13 12 10 9 11 11 10 11 10 11 11 12 12 12 11 10 10 10 10 10 10 9 9 9 8 9 9 9 8 8 7 7 8 8 9 8 7 7 7 7 7 7 7 7 7 6 5 3 3 3 2 2 2 2 3 5 8 10 3 2 2 1 2 1 1 3 9 5 5 6 6 8 8 8 7 7 7 7 7
11 12 12 12 13 13 13 13 12 11 11 11 10 11 12 12 12 12 12 12 12 11 11 10 10 10 10 10 9 8 8 8 8 8 8 8 8 8 7 8 8 7 7 6 5 5 6 5 6 6 6 6 5 4 3 3 2 2 2 3 3 3 6 10 2 3 3 4 3 2 2 3 8 5 5 7 7 8 9 8 7 7 8 7 7
11 11 11 12 12 13 12 13 13 12 12 13 13 13 12 12 11 11 11 12 11 11 10 10 9 9 10 10 8 7 8 7 8 8 9 8 9 8 8 8 8 7 7 6 5 4 4 4 4 5 5 5 4 3 3 3 2 1 2 3 3 3 6 10 3 1 3 1 2 2 2 9 5 4 5 7 8 9 9 9 8 8 8 9 9
10 10 11 11 12 12 12 12 12 13 13 10 10 14 14 12 12 11 11 11 11 11 10 9 9 10 10 9 9 8 7 6 6 7 7 8 8 8 8 7 7 7 6 6 5 4 3 3 4 4 4 4 4 3 3 2 2 2 3 4 5 6 8 9 2 1 1 0 3 3 6 6 1 3 6 7 9 9 9 9 8 7 7 9 8
8 9 10 10 11 11 11 11 11 12 11 10 11 12 14 14 12 12 11 11 11 10 9 9 9 9 10 10 10 9 8 7 6 7 6 6 6 6 7 7 7 6 5 4 4 3 3 2 3 4 4 4 4 4 3 3 3 3 4 5 7 8 7 3 3 3 3 2 3 5 8 6 3 6 7 8 9 10 9 8 8 6 6 7 6
7 9 10 10 10 11 11 10 11 12 12 11 11 11 13 15 14 13 12 11 10 9 9 9 9 9 9 7 6 6 6 5 8 6 8 6 6 6 6 6 6 6 4 4 3 3 3 2 2 3 4 5 5 6 5 4 4 5 6 7 8 8 2 3 3 2 2 3 3 7 8 7 6 7 8 8 9 10 9 8 8 7 8 8 6
9 9 10 11 10 10 11 11 10 12 11 9 9 9 10 12 12 12 11 10 9 9 9 7 8 7 7 8 5 4 4 5 5 6 5 8 7 5 5 4 4 4 4 4 3 3 3 3 3 4 4 6 8 7 8 8 8 6 7 8 8 4 0 3 3 4 3 3 6 9 9 8 7 8 8 8 8 8 8 8 5 2 6 8 7
10 10 10 11 10 10 11 11 11 11 11 10 8 10 12 10 11 11 9 10 9 8 7 7 6 7 6 5 4 4 4 4 4 4 5 8 7 5 4 2 1 2 3 5 4 3 3 4 4 4 7 9 9 4 5 7 7 11 10 7 3 2 3 2 3 2 3 5 6 12 9 9 9 8 8 8 8 7 6 4 2 5 7 9 10
12 11 10 10 10 9 11 11 11 12 11 8 8 9 9 9 9 9 8 7 8 7 6 5 5 4 5 4 4 4 3 4 7 9 8 6 7 9 8 6 6 4 3 7 8 6 6 7 6 7 9 9 4 4 3 2 1 3 1 2 2 1 2 2 3 2 4 9 8 12 11 10 10 11 10 10 9 7 6 5 5 7 7 7 9
10 10 10 10 11 11 11 11 11 11 11 8 8 8 8 8 8 7 7 7 7 7 6 5 5 5 4 3 4 3 3 3 4 4 2 2 3 4 5 4 3 5 6 3 4 7 8 7 7 9 4 1 1 1 2 1 1 1 1 2 2 3 3 2 3 5 8 7 10 15 13 12 12 12 12 10 9 8 8 7 6 6 7 8 8
10 10 11 11 11 11 11 10 11 12 10 9 9 8 8 7 7 7 6 6 6 6 6 5 5 5 5 4 3 3 3 3 3 3 2 1 2 2 2 2 2 2 3 2 3 1 2 1 1 1 1 1 1 1 1 2 1 2 2 2 3 2 3 3 4 4 7 7 11 16 15 13 12 13 12 12 11 9 7 6 7 7 7 7 8
10 10 9 10 11 11 11 11 11 11 11 9 8 8 7 6 7 6 7 6 6 6 5 5 5 5 5 4 4 3 3 3 3 3 2 1 2 1 2 2 2 2 1 1 2 2 1 1 1 1 1 1 1 1 0 2 3 3 3 3 4 4 4 4 4 4 5 8 13 19 17 18 17 17 16 14 14 14 13 11 11 10 10 8 9
9 11 9 10 11 12 11 11 10 10 9 9 8 8 7 7 7 7 6 7 6 6 5 5 5 5 5 4 3 2 2 2 3 3 2 1 1 1 1 2 2 1 2 1 1 2 1 1 1 1 0 1 1 1 2 2 2 3 3 3 4 4 4 4 4 5 6 6 10 18 18 19 19 19 19 19 19 19 18 16 15 15 13 12 12
10 10 11 11 12 12 13 12 11 11 9 8 8 7 7 7 7 7 6 7 6 5 4 5 4 4 4 3 3 2 2 2 2 3 2 2 2 1 1 2 1 2 1 2 2 1 1 1 1 0 1 1 2 2 2 2 1 3 3 4 4 4 4 4 3 5 6 7 9 14 19 19 19 20 20 20 20 21 21 20 18 18 17 15 12
10 10 11 11 12 13 13 13 12 11 9 8 7 8 7 8 7 7 6 7 6 5 5 4 3 3 3 3 2 2 1 1 2 2 2 3 2 1 1 2 2 2 2 2 2 1 1 2 1 1 2 2 2 2 1 2 3 3 3 4 4 4 4 5 5 4 4 6 8 11 19 18 19 20 20 21 22 21 20 20 20 21 21 21 19
10 11 10 11 11 12 12 13 12 11 9 8 7 8 7 7 7 7 7 7 6 5 5 4 3 3 3 3 3 2 1 1 1 1 2 3 3 2 2 2 3 3 2 3 3 2 2 2 3 3 2 2 2 2 2 2 2 4 4 5 5 5 5 5 5 5 5 5 4 8 13 18 18 20 20 20 20 20 20 20 21 20 21 21 20
11 11 10 10 12 12 12 13 12 11 10 9 8 8 7 8 8 6 7 6 6 5 5 4 3 3 3 3 2 1 1 1 1 1 2 3 3 2 3 3 3 3 3 3 3 2 2 3 3 3 3 2 2 3 2 2 3 4 5 5 5 5 5 5 6 6 7 6 5 4 5 10 18 18 19 20 19 20 20 20 20 20 20 21 21
8 10 10 11 12 12 12 12 12 12 11 10 9 7 8 8 7 6 6 6 6 5 4 4 4 3 3 2 2 2 1 1 2 2 3 3 4 3 3 3 3 3 3 4 3 1 1 2 2 2 2 2 1 2 2 2 3 5 5 5 5 6 6 6 6 6 6 6 5 5 5 5 7 18 18 18 18 18 18 19 19 19 19 19 20
9 9 10 11 11 10 10 10 11 12 12 10 9 8 8 8 7 6 6 6 5 4 4 3 3 3 3 3 3 3 3 2 3 3 2 3 4 4 4 4 3 4 3 2 2 3 3 2 2 1 2 1 2 1 1 3 4 5 6 6 6 6 6 6 6 6 6 6 5 5 5 5 6 6 6 16 18 17 17 18 19 19 19 18 18
9 10 12 13 12 11 10 9 11 12 11 10 10 9 8 8 7 6 6 6 5 4 4 4 3 3 3 3 3 3 4 3 3 3 2 3 3 4 4 3 3 2 3 3 2 2 3 3 3 2 1 1 2 2 3 4 5 6 6 6 6 6 6 6 6 6 6 6 5 6 6 6 6 6 6 6 10 16 16 16 17 18 18 18 17
10 11 12 13 13 12 12 11 13 13 12 11 10 10 9 8 7 6 6 6 5 4 4 3 3 3 3 3 4 4 4 4 4 3 3 3 3 3 4 3 3 3 3 3 2 3 3 2 3 3 1 1 2 2 4 6 7 7 6 6 6 5 6 6 6 6 6 6 6 6 6 7 7 7 7 6 6 8 14 13 13 16 17 17 17
10 11 13 13 13 13 12 12 14 13 12 11 10 9 9 9 8 7 6 5 4 4 4 4 4 3 2 3 4 4 4 4 4 3 3 3 3 3 4 3 2 3 3 2 2 3 2 1 2 2 2 0 3 5 6 6 7 7 7 7 6 6 6 6 6 6 6 7 6 6 6 7 6 6 6 7 7 7 9 11 11 11 16 16 16
11 11 12 13 13 13 12 12 12 12 10 10 10 9 8 8 8 6 6 5 5 4 4 4 3 2 2 4 5 5 4 4 4 4 3 3 3 3 4 3 2 2 2 2 3 2 2 1 2 3 2 1 3 5 7 7 7 7 7 7 7 6 6 6 6 6 6 6 6 6 6 6 6 6 6 7 7 7 7 8 9 7 12 14 14
10 12 12 13 12 12 11 11 12 11 10 9 10 9 9 8 7 7 7 6 5 4 4 4 3 2 3 4 5 5 5 4 4 4 4 4 3 3 3 3 2 1 1 1 1 2 2 2 2 3 3 3 3 5 7 7 8 8 8 8 8 8 7 7 6 5 5 5 5 5 4 5 6 6 6 7 6 7 7 7 7 7 7 12 12
10 11 13 13 13 13 12 12 11 10 10 9 9 9 8 8 8 7 6 5 5 4 4 3 3 3 3 4 5 4 5 5 5 4 3 3 3 3 2 1 2 2 2 2 2 2 2 2 3 3 4 5 4 6 7 8 9 9 9 9 9 9 9 7 6 6 5 5 5 5 5 5 5 5 6 5 6 6 6 6 6 7 7 7 9
11 12 13 14 13 12 13 13 11 12 11 10 8 8 9 8 7 7 7 6 5 5 3 3 2 2 3 4 4 4 5 4 4 3 3 3 3 3 2 2 2 3 2 2 3 3 2 3 3 3 4 5 5 5 7 7 8 8 7 9 8 8 8 8 7 6 6 5 5 5 5 5 5 5 4 5 6 6 6 6 6 6 7 7 7
11 12 12 12 12 13 11 9 9 10 9 9 8 8 8 8 7 7 7 6 6 6 5 3 3 3 3 3 3 3 3 3 2 3 3 3 2 1 2 2 2 3 3 3 3 3 2 2 2 4 4 4 4 2 5 6 5 5 6 6 6 6 7 7 7 7 6 6 5 5 5 5 5 4 4 4 4 5 5 5 6 6 6 7 7
11 11 10 12 12 10 10 9 9 8 7 9 9 8 8 7 8 7 8 6 4 4 5 5 5 5 5 4 3 3 3 2 3 3 3 3 3 2 2 3 3 2 2 3 3 3 3 3 3 2 4 4 4 2 2 4 3 5 4 5 5 6 6 6 7 7 6 5 4 4 4 4 5 4 4 4 4 4 4 5 5 6 6 7 7
9 9 10 11 10 8 11 9 8 8 9 9 9 9 8 7 7 7 8 7 6 6 6 5 5 5 5 4 4 3 3 3 3 3 3 4 3 3 3 3 3 2 2 3 4 4 3 3 3 2 1 3 4 4 4 2 5 2 5 4 3 5 7 4 5 5 5 5 4 4 3 3 3 3 3 4 3 4 4 5 6 7 7 7 7
7 9 8 8 9 11 11 10 9 9 9 9 8 8 9 9 8 7 6 7 5 6 6 5 4 4 4 4 4 4 4 4 4 4 4 4 4 4 4 3 3 3 3 4 4 4 4 4 3 3 3 3 5 5 5 5 5 5 6 2 4 5 4 7 6 5 2 4 5 5 4 3 3 3 3 4 4 4 3 4 5 5 6 6 7
11 7 1 9 8 8 11 10 11 11 9 10 9 10 10 9 8 7 6 3 5 4 5 6 5 5 4 4 4 4 4 4 4 3 4 4 5 5 4 4 4 4 4 4 5 5 5 4 3 3 5 5 5 6 7 6 7 8 7 6 5 5 3 6 5 4 4 5 4 5 5 4 3 3 3 4 5 5 5 4 5 5 5 6 6
12 11 12 14 15 13 14 14 11 9 10 12 12 10 10 9 10 10 10 7 6 5 4 4 5 5 4 5 4 4 4 5 4 5 5 5 5 4 5 5 5 5 5 5 5 5 4 4 3 4 4 3 4 6 6 6 6 8 8 8 9 8 8 1 1 6 5 4 3 3 4 4 4 3 3 4 5 4 5 5 5 5 5 5 6
12 15 14 16 17 14 16 14 11 12 11 12 12 11 11 10 11 10 8 9 9 9 7 5 4 5 6 5 4 4 4 4 5 5 5 5 5 5 6 6 5 5 5 5 5 5 5 5 5 5 4 4 3 4 4 4 5 5 6 7 8 8 8 8 7 4 3 3 4 4 5 3 2 2 2 3 4 4 4 5 5 6 5 6 6
14 14 13 14 14 14 14 12 13 13 12 13 12 11 11 12 9 9 10 7 9 9 7 6 5 5 6 5 5 5 5 5 5 5 4 5 5 6 6 6 6 6 6 6 6 7 7 6 6 6 6 6 6 5 5 5 4 4 4 5 5 5 6 6 5 6 4 1 4 2 1 4 3 3 1 1 2 2 3 5 5 6 6 5 6
12 14 13 12 13 11 11 13 13 11 12 13 12 12 13 13 12 9 9 8 9 7 7 7 6 6 6 6 5 5 5 5 5 5 5 6 6 6 6 7 6 6 6 7 8 8 7 8 8 8 7 8 6 7 7 6 5 5 4 2 3 3 4 5 6 5 4 4 4 4 3 3 2 2 1 1 1 1 2 4 5 6 6 6 7
14 14 13 13 13 14 14 14 13 11 13 14 13 14 13 11 10 8 11 11 9 9 8 7 7 7 7 6 5 5 5 5 5 5 5 6 6 6 6 7 7 7 7 7 7 7 7 8 8 9 9 9 8 8 8 7 6 6 6 6 6 6 6 7 6 6 5 5 4 4 4 3 2 3 3 2 3 2 4 4 5 5 7 7 7
Wind_Direction
149 139 137 136 146 143 144 148 149 149 146 147 141 139 134 134 134 132 131 129 128 129 126 125 125 123 122 120 119 118 118 116 111 108 107 103 101 99 98 97 97 96 95 94 90 92 92 96 99 99 102 100 104 95 93 77 77 88 78 71 68 67 75 67 64 79 80 73 72 74 72 75 75 74 69 66 59 52 37 5 355 321 52 56 36
146 140 136 145 141 142 145 147 148 148 149 147 143 141 137 136 137 136 133 131 130 130 131 129 128 126 123 121 120 119 120 116 112 111 106 105 100 97 96 95 92 92 91 93 94 95 98 100 101 98 98 102 102 106 98 90 84 77 73 69 68 66 61 56 58 60 62 71 74 87 84 74 74 75 68 57 56 49 34 11 3 332 72 36 42
136 135 140 140 142 144 144 146 147 146 150 149 146 143 139 139 139 136 136 132 130 132 131 131 131 128 125 122 120 121 120 115 113 111 115 111 104 99 97 96 93 92 91 95 94 96 106 106 104 106 93 98 101 100 102 94 83 77 74 71 68 66 63 60 58 60 65 66 80 99 105 89 75 72 69 66 59 50 34 35 19 1 55 33 21
132 136 144 137 142 141 141 145 147 147 149 152 148 144 141 141 141 139 134 129 131 131 131 130 129 128 125 122 122 122 118 116 116 116 105 101 103 101 98 94 92 90 96 98 100 105 110 107 108 107 108 107 106 101 96 91 84 78 74 70 67 62 59 59 58 55 47 52 280 238 144 125 110 78 77 65 65 57 43 29 34 38 43 42 31
133 139 142 151 149 141 142 144 147 147 150 152 150 149 147 145 142 136 131 128 129 130 129 130 133 129 127 125 122 119 116 109 103 100 106 108 105 105 98 93 95 102 99 97 102 111 117 117 115 113 107 104 103 102 100 97 89 81 73 71 71 71 66 60 57 52 44 313 268 264 82 93 103 96 77 70 70 64 48 34 32 26 15 24 23
137 139 145 155 155 146 140 145 150 149 152 155 154 151 151 146 138 135 132 130 130 130 132 134 134 133 129 126 123 119 113 109 110 111 108 107 114 100 90 83 78 77 96 105 105 113 116 118 116 113 113 112 109 105 101 97 91 84 78 74 67 67 55 38 33 41 283 276 244 231 68 67 84 111 83 82 66 32 37 35 26 14 6 334 1
138 139 146 156 152 144 139 148 151 153 154 156 155 152 151 142 136 135 135 134 134 134 135 136 134 130 126 123 119 115 113 113 111 106 99 93 86 88 85 80 76 86 100 108 110 115 121 120 116 111 109 110 109 104 101 97 96 89 80 72 58 32 14 19 356 342 300 262 111 62 77 80 80 85 104 87 53 33 37 27 2 354 345 349 333
140 143 150 152 157 135 141 150 153 155 156 157 156 154 147 140 138 139 137 137 137 137 138 135 132 128 124 120 116 113 111 113 110 106 97 90 84 82 82 79 77 79 79 97 109 115 121 123 118 115 111 112 111 107 102 95 88 88 87 73 38 351 332 314 307 269 281 279 48 54 58 57 65 78 98 80 44 50 22 279 305 202 289 16 328
143 145 151 149 136 140 142 150 155 157 159 158 155 151 145 141 140 139 140 138 137 137 135 132 128 125 121 119 116 116 117 111 108 102 97 93 92 90 88 86 86 87 91 100 110 117 115 120 120 117 115 113 110 108 106 106 99 97 69 47 10 349 316 297 271 264 252 82 64 80 350 103 75 86 101 80 318 349 347 295 210 209 177 5 318
142 144 144 150 144 137 145 149 156 162 161 157 153 149 145 142 141 141 141 138 136 136 134 130 128 124 122 120 120 118 114 111 105 104 103 98 92 87 83 85 86 99 105 109 112 114 118 118 121 118 114 112 113 112 110 108 107 80 63 39 14 4 322 294 259 254 288 145 102 76 48 342 48 68 90 134 323 39 317 298 334 350 360 334 303
143 143 147 146 139 135 141 153 162 164 161 156 150 149 145 144 141 140 139 138 137 135 132 130 128 125 122 119 116 113 107 104 103 100 98 95 94 91 87 83 84 91 107 117 121 121 122 119 114 112 114 115 118 122 122 111 97 78 49 38 18 351 325 278 260 218 150 92 90 109 127 234 38 62 101 105 251 269 268 285 298 292 284 307 312
143 143 150 128 129 136 146 155 167 165 158 153 149 148 147 143 139 139 140 138 136 133 128 126 124 122 119 115 114 109 102 100 98 97 100 100 99 98 99 98 91 91 96 113 118 123 118 117 113 114 122 131 131 125 120 112 97 84 56 25 18 330 327 291 268 88 167 98 73 352 65 188 64 89 104 227 239 256 255 266 267 269 289 300 317
142 150 141 129 143 139 149 161 166 162 158 151 149 151 146 141 138 140 138 133 133 129 128 124 119 116 114 111 105 95 92 91 85 87 90 95 97 100 101 102 100 98 102 110 116 118 118 116 119 125 128 126 125 120 117 114 102 85 66 25 345 322 306 295 271 88 82 78 82 142 109 48 95 102 148 240 241 241 265 266 266 273 286 302 313
146 147 143 147 147 146 150 161 168 154 155 151 150 148 145 140 140 138 133 132 128 122 122 121 116 110 106 98 92 87 86 85 85 85 87 91 99 103 103 103 101 98 97 102 113 116 117 122 127 125 123 118 114 117 113 98 87 72 49 9 347 325 312 265 272 99 73 85 22 36 50 43 65 110 176 254 253 249 260 270 272 281 293 301 305
146 144 148 144 144 153 154 163 164 149 146 144 146 145 142 138 132 130 130 128 124 118 122 116 110 105 98 95 89 88 86 84 86 87 90 95 100 102 104 104 103 98 96 100 106 115 120 124 122 123 116 116 112 105 91 74 75 55 35 11 356 335 323 323 82 70 84 32 65 254 48 90 100 147 201 249 270 262 260 267 279 285 292 294 293
144 147 150 147 153 154 160 161 158 141 144 143 144 144 141 132 131 131 130 124 120 118 118 111 107 101 98 93 91 91 96 98 99 100 98 100 102 104 102 102 103 105 102 105 103 110 119 116 116 117 118 116 117 111 93 71 51 59 42 4 342 347 322 314 45 32 54 55 86 338 329 95 126 143 225 244 264 270 262 268 279 284 285 289 287
145 153 150 153 155 160 163 162 154 140 148 143 145 144 141 132 131 130 125 124 124 123 117 113 106 104 100 98 97 101 101 101 100 101 101 104 107 107 108 105 104 105 107 109 112 114 120 118 115 115 119 118 120 109 106 100 77 49 14 319 344 324 306 301 352 32 29 41 330 351 358 17 133 164 214 242 258 269 266 268 275 282 281 282 284
153 158 157 157 162 165 160 165 157 170 158 153 150 144 142 132 128 126 125 126 122 118 116 112 111 111 109 106 109 108 105 104 103 100 103 105 108 109 107 107 109 107 110 115 115 120 123 124 125 126 123 131 127 128 119 122 142 135 211 268 258 276 277 276 286 37 56 343 303 62 318 73 120 190 227 247 258 266 272 275 283 290 288 290 293
155 165 162 163 166 168 159 164 167 169 161 167 162 147 140 131 129 126 125 122 118 117 118 118 122 116 114 117 119 114 108 105 109 98 100 106 108 106 101 106 108 110 110 116 120 124 135 146 146 145 151 149 144 142 158 139 144 190 224 228 235 239 262 261 308 351 27 264 0 329 51 55 303 229 249 252 255 262 271 280 287 282 296 301 314
161 171 167 173 168 170 163 163 169 171 166 171 162 151 139 134 132 130 125 121 121 119 123 127 125 128 124 129 133 136 137 121 132 115 101 99 73 90 109 109 110 110 110 116 121 126 140 155 166 174 169 172 165 169 171 164 175 198 216 219 221 228 238 257 339 333 328 60 299 27 42 350 311 280 268 263 261 264 274 284 289 322 299 290 301
171 175 173 177 171 169 166 166 170 171 171 168 161 153 139 143 142 133 130 122 121 128 128 134 135 129 132 121 177 161 133 139 176 120 172 104 110 115 110 104 105 100 100 102 120 142 154 180 200 195 195 179 190 183 163 170 185 207 208 217 226 233 270 317 321 300 317 351 23 48 14 350 316 297 286 280 276 273 277 281 302 301 288 281 283
172 175 180 176 174 172 169 172 167 173 172 164 161 147 150 158 152 148 141 133 138 146 165 147 145 129 141 176 153 144 145 129 124 142 121 149 123 95 95 97 87 94 99 110 109 134 155 165 204 214 204 214 210 200 162 164 182 202 213 223 228 266 41 302 306 331 329 6 43 29 2 349 328 316 308 296 293 297 286 293 8 329 284 286 292
179 178 178 176 178 170 171 175 169 172 173 165 160 152 159 161 156 149 138 146 148 168 148 156 153 153 153 136 143 141 158 134 109 103 104 66 103 96 82 102 121 88 128 125 139 136 151 175 195 219 229 220 217 202 191 164 160 188 205 213 251 349 338 311 292 321 344 36 48 22 18 12 6 352 342 348 343 330 330 337 330 313 302 300 300
183 179 174 175 172 174 172 173 172 172 173 168 163 158 160 160 159 152 150 148 156 158 151 154 151 144 146 146 156 162 157 142 126 135 154 157 136 156 168 174 174 175 191 178 159 161 176 183 199 216 215 213 206 196 186 155 162 184 166 291 345 331 280 320 318 337 30 35 34 25 32 35 30 32 32 32 32 27 32 25 348 328 322 308 305
179 174 173 171 176 173 173 171 174 173 174 166 164 161 158 164 157 155 151 155 156 156 153 152 149 156 161 162 157 179 183 158 144 153 165 147 144 142 169 181 155 144 213 145 169 147 196 161 174 206 219 216 143 49 324 71 274 294 69 329 331 334 318 331 10 332 59 49 37 32 33 38 40 42 43 42 41 32 23 15 350 329 317 301 294
175 179 173 165 174 172 174 170 173 176 174 168 165 154 165 162 155 155 150 153 159 156 156 159 156 167 175 171 168 176 182 146 136 122 122 114 121 109 118 138 166 127 192 145 118 153 135 137 151 138 153 152 130 1 34 322 339 4 354 3 345 346 336 356 22 5 64 56 42 36 35 38 42 42 43 42 41 39 32 11 358 351 340 329 320
176 173 170 168 167 173 173 169 173 175 173 168 160 163 166 157 158 158 156 160 163 161 163 160 162 166 171 166 181 175 164 146 127 114 88 43 81 103 120 144 167 128 94 94 101 125 122 121 142 126 95 39 14 67 99 67 11 357 360 3 13 9 348 11 20 29 56 65 56 41 37 34 34 44 43 45 47 45 37 32 30 26 14 6 357
172 155 168 163 168 171 165 173 172 172 170 166 165 165 159 157 153 144 173 158 167 166 162 161 155 171 169 172 173 172 155 139 129 124 118 102 88 93 127 122 104 108 88 85 167 91 109 120 108 109 96 96 86 30 34 35 38 21 19 12 24 27 7 12 31 41 67 57 59 41 39 39 37 38 40 42 47 46 43 40 32 32 32 37 35
166 166 165 169 168 171 166 170 170 173 169 167 169 162 160 161 159 161 166 165 176 161 160 159 169 167 159 163 159 151 152 121 126 123 129 110 94 69 66 73 72 83 110 95 74 105 99 79 70 31 81 32 83 43 38 49 46 47 11 48 30 31 26 27 29 63 67 63 65 50 42 43 42 39 37 36 39 39 34 33 37 37 34 36 30
164 169 164 171 171 168 171 170 168 172 166 171 168 163 161 160 162 166 158 176 163 159 167 173 164 167 157 144 155 129 105 104 120 121 116 103 85 78 81 83 74 54 55 75 67 59 55 84 88 9 97 102 71 80 305 61 66 43 29 56 43 46 47 39 36 33 86 87 89 75 55 45 46 44 40 37 37 35 32 29 29 29 27 27 30
161 166 169 168 171 171 175 170 168 165 167 171 167 159 162 167 161 167 166 173 160 170 170 170 167 154 146 141 120 95 94 89 93 109 116 118 120 124 106 94 74 57 39 56 56 57 68 62 46 30 33 42 48 50 17 50 43 73 55 55 59 61 62 60 56 54 44 57 71 97 82 62 52 48 44 41 38 36 35 32 30 28 27 25 26
168 173 173 170 168 178 173 173 166 164 168 168 162 160 169 166 162 171 171 166 163 172 165 168 155 153 133 126 119 135 159 114 114 110 120 119 123 96 80 76 77 80 59 53 57 39 56 59 65 78 39 29 42 43 55 28 43 54 69 70 69 77 77 70 69 61 60 53 48 49 82 97 73 57 49 43 39 37 35 34 32 30 27 24 23
172 175 178 168 173 176 176 172 165 164 169 168 165 164 168 166 167 173 165 167 170 167 168 163 158 157 127 132 137 157 157 158 131 127 126 116 109 112 98 87 83 72 68 53 45 46 81 109 94 64 72 82 76 78 64 81 72 61 73 81 80 75 72 76 68 65 60 61 57 63 50 27 94 94 68 50 42 37 35 34 33 31 29 26 23
172 173 173 173 170 175 175 173 169 168 169 167 165 167 169 167 169 170 165 170 168 166 162 162 168 153 146 143 169 174 172 160 139 127 120 116 112 97 88 88 86 80 75 53 53 34 30 28 17 58 38 25 64 70 82 68 81 98 79 68 66 62 65 67 70 70 64 59 55 43 38 50 26 15 75 74 51 36 33 32 32 31 29 27 26
174 173 171 174 174 173 172 170 172 169 168 166 171 168 165 167 166 171 169 167 163 169 166 177 187 155 171 151 174 173 163 145 130 127 124 113 107 99 92 84 79 84 74 60 52 45 39 12 1 353 69 52 52 52 63 83 85 79 75 74 77 81 76 72 66 66 70 66 55 47 45 39 29 30 20 26 66 46 31 30 32 31 29 27 26
178 165 174 173 174 171 174 171 175 169 172 171 171 165 161 165 163 164 162 161 165 169 182 193 188 161 170 156 166 156 142 135 133 132 124 117 99 93 87 76 72 65 63 49 26 36 36 25 26 350 357 67 121 100 90 94 87 81 76 78 76 76 75 72 67 60 52 55 53 48 46 42 35 37 22 29 19 57 40 25 28 33 29 26 24
182 168 172 173 173 170 173 172 180 170 172 173 166 157 158 162 162 162 156 157 167 177 183 192 185 167 156 161 152 140 146 138 137 128 119 112 112 98 82 82 56 56 50 31 38 14 45 47 45 31 344 116 109 109 104 99 92 87 84 81 76 70 69 66 63 65 64 54 50 52 49 40 46 35 39 28 24 12 40 25 20 35 32 25 22
184 175 171 173 170 170 173 171 175 170 169 167 161 158 162 159 158 154 155 167 172 177 177 186 164 160 181 164 148 140 145 138 135 130 115 106 98 102 99 76 68 55 50 31 32 13 28 8 64 36 20 10 126 122 114 106 100 94 84 74 68 68 70 66 62 59 59 56 57 55 51 52 42 40 40 36 25 25 12 16 13 29 47 24 21
183 180 171 173 169 170 171 165 171 166 156 156 159 159 153 152 149 154 160 162 162 163 175 176 147 174 179 145 150 148 140 140 136 129 129 121 114 101 87 83 52 24 27 315 79 39 41 41 44 88 59 51 93 108 110 108 103 97 86 77 73 67 65 59 60 64 63 65 67 56 56 56 57 45 40 37 34 25 18 10 9 7 29 31 17
181 181 175 173 170 168 168 167 162 148 150 158 162 157 154 151 149 143 142 148 155 155 168 163 153 171 154 151 151 146 134 147 146 131 124 122 115 98 90 76 32 351 7 351 348 40 70 85 72 77 98 103 107 115 120 115 105 98 92 83 75 73 66 66 67 63 67 66 56 49 50 50 53 55 46 42 41 29 25 16 11 12 1 19 19
184 179 177 169 170 167 160 155 140 158 160 159 162 153 155 147 147 152 148 153 153 152 160 148 137 128 141 142 142 140 147 144 137 131 107 103 97 98 97 46 2 30 41 64 70 82 79 81 89 64 87 103 115 125 124 133 127 112 104 99 90 79 77 74 68 64 61 58 56 54 47 44 44 45 59 54 42 36 29 24 16 12 5 1 5
182 179 169 164 165 155 140 130 153 173 162 156 153 162 160 158 157 150 145 154 160 163 152 145 120 120 123 118 126 127 127 135 127 109 111 106 109 105 57 59 55 67 64 73 80 94 90 83 91 95 70 97 103 127 143 173 162 150 152 134 114 102 86 80 75 67 65 64 63 60 58 46 34 43 40 52 56 40 33 24 19 9 5 0 2
180 172 160 159 146 139 127 157 164 172 161 156 158 162 160 155 156 153 154 140 117 143 143 146 145 141 128 125 114 115 130 124 101 84 78 78 76 62 70 72 55 78 110 100 103 94 79 67 47 72 107 94 105 92 163 301 241 156 172 183 151 156 150 117 93 78 69 63 66 68 61 57 46 31 39 37 40 42 36 30 22 15 9 4 1
175 155 156 146 127 140 152 161 171 167 164 163 169 165 161 146 135 140 148 157 158 142 138 132 104 103 96 79 76 71 71 75 74 91 80 72 72 76 80 73 75 65 76 98 94 91 84 80 76 61 109 123 92 84 34 1 336 247 193 243 131 190 153 132 103 89 83 81 85 79 57 52 54 51 47 44 47 35 31 33 19 22 11 6 359
160 136 143 129 140 150 153 176 166 162 162 162 163 152 120 87 70 86 93 84 99 130 128 108 101 90 102 96 86 80 82 76 66 61 83 84 75 71 74 76 73 66 72 83 79 71 79 79 65 55 40 76 101 86 70 42 38 18 341 260 187 207 62 120 118 84 91 96 76 73 71 56 56 45 47 45 37 41 27 31 17 15 8 358 357
99 120 187 109 132 164 180 168 167 175 163 157 150 135 122 122 130 123 113 122 147 155 151 135 136 143 127 108 98 88 92 84 82 84 80 84 80 79 81 89 79 72 71 77 83 84 75 81 65 77 76 63 86 96 84 67 59 42 45 37 9 11 97 139 211 124 132 102 89 60 57 62 45 61 50 42 35 27 12 13 12 11 3 356 354
136 151 159 154 166 170 167 175 170 159 158 154 148 138 136 135 143 156 155 156 152 138 88 120 132 120 120 117 101 90 92 95 87 80 76 77 82 88 88 82 80 78 76 80 81 81 79 62 68 73 78 80 82 88 86 87 74 54 51 50 48 47 32 346 121 139 162 122 95 103 86 57 32 23 28 39 36 31 18 358 3 2 355 351 351
144 162 160 157 165 171 173 173 163 165 164 157 156 154 142 144 169 155 149 164 169 150 133 124 117 122 117 115 115 107 99 98 98 104 113 111 106 95 88 85 86 84 85 82 81 83 89 78 71 73 68 57 65 83 81 62 71 67 41 49 57 53 54 50 24 348 15 113 128 135 124 125 131 47 17 8 32 17 18 354 354 353 357 348 343
158 161 154 158 164 171 178 172 166 168 167 155 162 148 149 160 153 155 165 169 160 151 137 133 132 127 120 126 123 114 104 95 97 100 101 103 99 94 92 91 90 91 91 89 86 83 80 81 77 73 69 70 66 68 85 85 84 85 82 69 63 64 68 60 41 29 19 39 100 75 179 154 202 99 26 335 336 357 347 2 342 343 353 346 342
164 166 161 162 166 157 173 175 169 165 161 162 160 146 158 161 166 157 143 151 158 141 142 135 138 138 132 133 134 136 129 121 116 115 113 105 98 98 96 94 90 87 88 91 94 89 83 78 77 77 79 81 72 71 75 79 75 62 52 64 78 84 73 65 47 37 56 33 39 36 37 43 86 93 73 343 283 313 308 357 341 353 350 342 342
166 166 164 170 157 160 174 173 170 168 163 164 163 154 163 163 151 160 163 160 154 146 143 140 142 148 143 141 144 138 133 126 126 122 114 107 102 98 99 97 97 99 102 104 96 94 93 90 88 83 79 80 81 82 80 78 79 72 66 64 64 55 49 47 34 34 27 23 16 36 32 32 30 72 69 30 338 0 355 353 353 358 347 341 338